Time,TemperatureF,DewpointF,PressureIn,WindDirection,WindDirectionDegrees,WindSpeedMPH,WindSpeedGustMPH,Humidity,HourlyPrecipIn,Conditions,Clouds,dailyrainin,SoftwareType,DateUTC
2013-01-19 00:02:00,34.0,31.0,29.78,ESE,113,1.0,2.0,89,0.00,,,0.00,,2013-01-19 08:02:00,
2013-01-19 00:11:00,34.0,31.0,29.78,ESE,113,1.0,2.0,89,0.00,,,0.00,,2013-01-19 08:11:00,
2013-01-19 00:22:00,34.0,31.0,29.78,ESE,113,1.0,2.0,89,0.00,,,0.00,,2013-01-19 08:22:00,
2013-01-19 00:32:00,33.0,30.0,29.78,ESE,113,0.0,2.0,88,0.00,,,0.00,,2013-01-19 08:32:00,
2013-01-19 00:42:00,33.0,30.0,29.78,ESE,113,0.0,2.0,88,0.00,,,0.00,,2013-01-19 08:42:00,
2013-01-19 00:52:00,33.0,30.0,29.76,ESE,113,1.0,2.0,88,0.00,,,0.00,,2013-01-19 08:52:00,
2013-01-19 01:02:00,33.0,30.0,29.77,ESE,113,0.0,0.0,88,0.00,,,0.00,,2013-01-19 09:02:00,
2013-01-19 01:11:00,33.0,30.0,29.77,ESE,113,0.0,0.0,88,0.00,,,0.00,,2013-01-19 09:11:00,
2013-01-19 01:22:00,33.0,30.0,29.77,ESE,113,0.0,1.0,89,0.00,,,0.00,,2013-01-19 09:22:00,
2013-01-19 01:32:00,33.0,30.0,29.77,ESE,113,0.0,1.0,89,0.00,,,0.00,,2013-01-19 09:32:00,
2013-01-19 01:42:00,33.0,30.0,29.77,ESE,113,0.0,1.0,89,0.00,,,0.00,,2013-01-19 09:42:00,
2013-01-19 01:52:00,33.0,30.0,29.76,ESE,113,0.0,1.0,89,0.00,,,0.00,,2013-01-19 09:52:00,
2013-01-19 02:01:00,33.0,30.0,29.77,ESE,113,0.0,0.0,89,0.00,,,0.00,,2013-01-19 10:01:00,
2013-01-19 02:12:00,33.0,30.0,29.77,ESE,113,0.0,0.0,89,0.00,,,0.00,,2013-01-19 10:12:00,
2013-01-19 02:22:00,33.0,30.0,29.78,ESE,113,0.0,0.0,89,0.00,,,0.00,,2013-01-19 10:22:00,
2013-01-19 02:32:00,33.0,30.0,29.78,ESE,113,0.0,0.0,89,0.00,,,0.00,,2013-01-19 10:32:00,
2013-01-19 02:42:00,33.0,30.0,29.78,ESE,113,0.0,0.0,89,0.00,,,0.00,,2013-01-19 10:42:00,
2013-01-19 02:53:00,33.0,30.0,29.78,ESE,113,0.0,2.0,89,0.00,,,0.00,,2013-01-19 10:53:00,
2013-01-19 03:02:00,32.0,29.0,29.78,ESE,113,1.0,1.0,89,0.00,,,0.00,,2013-01-19 11:02:00,
2013-01-19 03:12:00,32.0,29.0,29.78,ESE,113,1.0,1.0,89,0.00,,,0.00,,2013-01-19 11:12:00,
2013-01-19 04:47:00,33.0,30.0,29.78,ESE,113,0.0,0.0,89,0.00,,,0.00,,2013-01-19 12:47:00,
2013-01-19 04:53:00,33.0,30.0,29.78,ESE,113,0.0,0.0,89,0.00,,,0.00,,2013-01-19 12:53:00,
2013-01-19 05:02:00,33.0,30.0,29.78,ESE,113,0.0,0.0,89,0.00,,,0.00,,2013-01-19 13:02:00,
2013-01-19 05:12:00,33.0,30.0,29.78,ESE,113,0.0,0.0,89,0.00,,,0.00,,2013-01-19 13:12:00,
2013-01-19 05:22:00,33.0,30.0,29.78,ESE,113,0.0,0.0,89,0.00,,,0.00,,2013-01-19 13:22:00,
2013-01-19 05:32:00,32.0,29.0,29.78,ESE,113,0.0,0.0,89,0.00,,,0.00,,2013-01-19 13:32:00,
2013-01-19 05:42:00,32.0,29.0,29.78,ESE,113,0.0,0.0,89,0.00,,,0.00,,2013-01-19 13:42:00,
2013-01-19 05:53:00,33.0,30.0,29.79,ESE,113,0.0,0.0,89,0.00,,,0.00,,2013-01-19 13:53:00,
2013-01-19 06:02:00,33.0,30.0,29.78,ESE,113,0.0,0.0,89,0.00,,,0.00,,2013-01-19 14:02:00,
2013-01-19 06:12:00,33.0,30.0,29.78,ESE,113,0.0,0.0,89,0.00,,,0.00,,2013-01-19 14:12:00,
2013-01-19 06:22:00,33.0,30.0,29.78,ESE,113,0.0,0.0,89,0.00,,,0.00,,2013-01-19 14:22:00,
2013-01-19 06:33:00,33.0,30.0,29.78,ESE,113,0.0,1.0,89,0.00,,,0.00,,2013-01-19 14:33:00,
2013-01-19 06:42:00,33.0,30.0,29.78,ESE,113,0.0,1.0,89,0.00,,,0.00,,2013-01-19 14:42:00,
2013-01-19 06:53:00,32.0,29.0,29.78,ESE,113,0.0,0.0,89,0.00,,,0.00,,2013-01-19 14:53:00,
2013-01-19 07:02:00,32.0,29.0,29.78,ESE,113,0.0,0.0,89,0.00,,,0.00,,2013-01-19 15:02:00,
2013-01-19 07:12:00,32.0,29.0,29.78,ESE,113,0.0,0.0,89,0.00,,,0.00,,2013-01-19 15:12:00,
2013-01-19 07:22:00,32.0,29.0,29.78,ESE,113,0.0,0.0,88,0.00,,,0.00,,2013-01-19 15:22:00,
2013-01-19 07:32:00,32.0,29.0,29.78,ESE,113,0.0,2.0,88,0.00,,,0.00,,2013-01-19 15:32:00,
2013-01-19 07:42:00,32.0,29.0,29.78,ESE,113,0.0,2.0,88,0.00,,,0.00,,2013-01-19 15:42:00,
2013-01-19 07:53:00,32.0,29.0,29.78,ESE,113,1.0,3.0,88,0.00,,,0.00,,2013-01-19 15:53:00,
2013-01-19 08:02:00,32.0,29.0,29.78,ESE,113,0.0,2.0,88,0.00,,,0.00,,2013-01-19 16:02:00,
2013-01-19 08:12:00,32.0,29.0,29.78,ESE,113,0.0,2.0,88,0.00,,,0.00,,2013-01-19 16:12:00,
2013-01-19 08:22:00,32.0,29.0,29.79,ESE,113,0.0,1.0,87,0.00,,,0.00,,2013-01-19 16:22:00,
2013-01-19 08:32:00,32.0,29.0,29.82,ESE,113,1.0,1.0,87,0.00,,,0.00,,2013-01-19 16:32:00,
2013-01-19 08:42:00,32.0,29.0,29.82,ESE,113,1.0,1.0,87,0.00,,,0.00,,2013-01-19 16:42:00,
2013-01-19 08:53:00,32.0,29.0,29.82,ESE,113,1.0,2.0,87,0.00,,,0.00,,2013-01-19 16:53:00,
2013-01-19 09:02:00,32.0,29.0,29.80,ESE,113,1.0,1.0,87,0.00,,,0.00,,2013-01-19 17:02:00,
2013-01-19 09:13:00,32.0,29.0,29.80,ESE,113,1.0,1.0,87,0.00,,,0.00,,2013-01-19 17:13:00,
2013-01-19 09:25:00,32.0,29.0,29.80,ESE,113,1.0,3.0,87,0.00,,,0.00,,2013-01-19 17:25:00,
2013-01-19 09:33:00,32.0,29.0,29.82,ESE,113,1.0,2.0,87,0.00,,,0.00,,2013-01-19 17:33:00,
2013-01-19 09:43:00,32.0,29.0,29.82,ESE,113,1.0,2.0,87,0.00,,,0.00,,2013-01-19 17:43:00,
2013-01-19 09:54:00,32.0,29.0,29.82,ESE,113,0.0,0.0,87,0.00,,,0.00,,2013-01-19 17:54:00,
2013-01-19 10:03:00,33.0,30.0,29.81,ESE,113,0.0,0.0,87,0.00,,,0.00,,2013-01-19 18:03:00,
2013-01-19 10:12:00,33.0,30.0,29.81,ESE,113,0.0,0.0,87,0.00,,,0.00,,2013-01-19 18:12:00,
2013-01-19 10:24:00,33.0,30.0,29.81,ESE,113,0.0,0.0,87,0.00,,,0.00,,2013-01-19 18:24:00,
2013-01-19 10:32:00,33.0,29.0,29.82,ESE,113,0.0,0.0,86,0.00,,,0.00,,2013-01-19 18:32:00,
2013-01-19 10:43:00,33.0,29.0,29.82,ESE,113,0.0,0.0,86,0.00,,,0.00,,2013-01-19 18:43:00,
2013-01-19 11:05:00,33.0,29.0,29.81,ESE,113,0.0,0.0,84,0.00,,,0.00,,2013-01-19 19:05:00,
2013-01-19 11:13:00,33.0,29.0,29.81,ESE,113,0.0,0.0,84,0.00,,,0.00,,2013-01-19 19:13:00,
2013-01-19 11:43:00,34.0,29.0,29.81,ESE,113,0.0,1.0,83,0.00,,,0.00,,2013-01-19 19:43:00,
2013-01-19 12:03:00,34.0,29.0,29.80,ESE,113,0.0,0.0,83,0.00,,,0.00,,2013-01-19 20:03:00,
2013-01-19 12:22:00,34.0,29.0,29.80,ESE,113,0.0,1.0,82,0.00,,,0.00,,2013-01-19 20:22:00,
2013-01-19 12:33:00,35.0,30.0,29.80,ESE,113,0.0,1.0,82,0.00,,,0.00,,2013-01-19 20:33:00,
2013-01-19 12:43:00,35.0,30.0,29.80,ESE,113,0.0,1.0,82,0.00,,,0.00,,2013-01-19 20:43:00,
2013-01-19 12:52:00,35.0,30.0,29.79,ESE,113,0.0,0.0,82,0.00,,,0.00,,2013-01-19 20:52:00,
2013-01-19 13:02:00,35.0,30.0,29.78,SSW,203,0.0,0.0,81,0.00,,,0.00,,2013-01-19 21:02:00,
2013-01-19 13:22:00,35.0,29.0,29.78,North,0,1.0,2.0,80,0.00,,,0.00,,2013-01-19 21:22:00,
2013-01-19 13:34:00,35.0,30.0,29.78,North,0,0.0,2.0,81,0.00,,,0.00,,2013-01-19 21:34:00,
2013-01-19 13:45:00,35.0,30.0,29.78,North,0,0.0,2.0,81,0.00,,,0.00,,2013-01-19 21:45:00,
2013-01-19 13:58:00,35.0,29.0,29.79,WNW,293,1.0,2.0,80,0.00,,,0.00,,2013-01-19 21:58:00,
2013-01-19 14:13:00,35.0,30.0,29.78,North,0,0.0,1.0,81,0.00,,,0.00,,2013-01-19 22:13:00,
2013-01-19 14:33:00,35.0,30.0,29.77,East,90,1.0,2.0,82,0.00,,,0.00,,2013-01-19 22:33:00,
2013-01-19 14:44:00,35.0,30.0,29.77,East,90,1.0,2.0,82,0.00,,,0.00,,2013-01-19 22:44:00,
2013-01-19 14:55:00,35.0,30.0,29.77,NNW,338,0.0,1.0,82,0.00,,,0.00,,2013-01-19 22:55:00,
2013-01-19 15:03:00,35.0,30.0,29.77,West,270,0.0,1.0,83,0.00,,,0.00,,2013-01-19 23:03:00,
2013-01-19 15:13:00,35.0,30.0,29.77,West,270,0.0,1.0,83,0.00,,,0.00,,2013-01-19 23:13:00,
2013-01-19 15:24:00,35.0,30.0,29.77,North,0,1.0,1.0,83,0.00,,,0.00,,2013-01-19 23:24:00,
2013-01-19 15:33:00,35.0,30.0,29.77,NNW,338,1.0,2.0,83,0.00,,,0.00,,2013-01-19 23:33:00,
2013-01-19 15:43:00,35.0,30.0,29.77,NNW,338,1.0,2.0,83,0.00,,,0.00,,2013-01-19 23:43:00,
2013-01-19 16:03:00,34.0,30.0,29.77,WNW,293,0.0,2.0,84,0.00,,,0.00,,2013-01-20 00:03:00,
2013-01-19 16:13:00,34.0,30.0,29.77,WNW,293,0.0,2.0,84,0.00,,,0.00,,2013-01-20 00:13:00,
2013-01-19 16:33:00,34.0,30.0,29.78,North,0,0.0,1.0,85,0.00,,,0.00,,2013-01-20 00:33:00,
2013-01-19 16:44:00,34.0,30.0,29.78,North,0,0.0,1.0,85,0.00,,,0.00,,2013-01-20 00:44:00,
2013-01-19 16:55:00,34.0,30.0,29.77,NNW,338,0.0,2.0,85,0.00,,,0.00,,2013-01-20 00:55:00,
2013-01-19 17:02:00,33.0,29.0,29.78,ESE,113,0.0,1.0,86,0.00,,,0.00,,2013-01-20 01:02:00,
2013-01-19 17:14:00,33.0,29.0,29.78,ESE,113,0.0,1.0,86,0.00,,,0.00,,2013-01-20 01:14:00,
2013-01-19 17:33:00,33.0,29.0,29.78,NNW,338,1.0,4.0,86,0.00,,,0.00,,2013-01-20 01:33:00,
2013-01-19 17:43:00,33.0,29.0,29.78,NNW,338,1.0,4.0,86,0.00,,,0.00,,2013-01-20 01:43:00,
2013-01-19 18:00:00,33.0,29.0,29.78,ENE,68,0.0,0.0,86,0.00,,,0.00,,2013-01-20 02:00:00,
2013-01-19 18:12:00,32.0,29.0,29.78,NNW,338,1.0,4.0,87,0.00,,,0.00,,2013-01-20 02:12:00,
2013-01-19 18:24:00,33.0,30.0,29.78,NNW,338,0.0,0.0,87,0.00,,,0.00,,2013-01-20 02:24:00,
2013-01-19 18:33:00,33.0,30.0,29.78,NNW,338,1.0,2.0,87,0.00,,,0.00,,2013-01-20 02:33:00,
2013-01-19 18:43:00,33.0,30.0,29.78,NNW,338,1.0,2.0,87,0.00,,,0.00,,2013-01-20 02:43:00,
2013-01-19 18:57:00,33.0,30.0,29.78,NNW,338,1.0,2.0,87,0.00,,,0.00,,2013-01-20 02:57:00,
2013-01-19 19:03:00,33.0,30.0,29.78,NNW,338,0.0,0.0,88,0.00,,,0.00,,2013-01-20 03:03:00,
2013-01-19 19:13:00,33.0,30.0,29.78,NNW,338,0.0,0.0,88,0.00,,,0.00,,2013-01-20 03:13:00,
2013-01-19 19:23:00,33.0,30.0,29.79,NNW,338,0.0,0.0,88,0.00,,,0.00,,2013-01-20 03:23:00,
2013-01-19 19:33:00,33.0,30.0,29.79,NNW,338,0.0,0.0,88,0.00,,,0.00,,2013-01-20 03:33:00,
2013-01-19 19:43:00,33.0,30.0,29.79,NNW,338,0.0,0.0,88,0.00,,,0.00,,2013-01-20 03:43:00,
2013-01-19 19:55:00,33.0,30.0,29.79,NNW,338,0.0,1.0,88,0.00,,,0.00,,2013-01-20 03:55:00,
2013-01-19 20:03:00,33.0,30.0,29.80,NNW,338,0.0,0.0,87,0.00,,,0.00,,2013-01-20 04:03:00,
2013-01-19 20:13:00,33.0,30.0,29.80,NNW,338,0.0,0.0,87,0.00,,,0.00,,2013-01-20 04:13:00,
2013-01-19 20:23:00,33.0,30.0,29.80,NNW,338,0.0,0.0,88,0.00,,,0.00,,2013-01-20 04:23:00,
2013-01-19 20:33:00,33.0,30.0,29.80,NNW,338,0.0,0.0,87,0.00,,,0.00,,2013-01-20 04:33:00,
2013-01-19 20:43:00,33.0,30.0,29.80,NNW,338,0.0,0.0,87,0.00,,,0.00,,2013-01-20 04:43:00,
2013-01-19 20:55:00,33.0,30.0,29.80,NNW,338,0.0,0.0,88,0.00,,,0.00,,2013-01-20 04:55:00,
2013-01-19 21:02:00,33.0,30.0,29.80,NNW,338,0.0,1.0,88,0.00,,,0.00,,2013-01-20 05:02:00,
2013-01-19 21:12:00,33.0,30.0,29.80,NNW,338,0.0,1.0,88,0.00,,,0.00,,2013-01-20 05:12:00,
2013-01-19 21:22:00,33.0,30.0,29.80,NNW,338,0.0,0.0,88,0.00,,,0.00,,2013-01-20 05:22:00,
2013-01-19 21:32:00,34.0,31.0,29.80,NNW,338,0.0,1.0,88,0.00,,,0.00,,2013-01-20 05:32:00,
2013-01-19 21:42:00,34.0,31.0,29.80,NNW,338,0.0,1.0,88,0.00,,,0.00,,2013-01-20 05:42:00,
2013-01-19 21:53:00,34.0,31.0,29.80,NNW,338,0.0,1.0,88,0.00,,,0.00,,2013-01-20 05:53:00,
2013-01-19 22:02:00,34.0,31.0,29.80,NNW,338,0.0,0.0,88,0.00,,,0.00,,2013-01-20 06:02:00,
2013-01-19 22:11:00,34.0,31.0,29.80,NNW,338,0.0,0.0,88,0.00,,,0.00,,2013-01-20 06:11:00,
2013-01-19 22:22:00,34.0,31.0,29.81,NNW,338,0.0,0.0,88,0.00,,,0.00,,2013-01-20 06:22:00,
2013-01-19 22:32:00,34.0,31.0,29.81,NNW,338,0.0,2.0,88,0.00,,,0.00,,2013-01-20 06:32:00,
2013-01-19 22:42:00,34.0,31.0,29.81,NNW,338,0.0,2.0,88,0.00,,,0.00,,2013-01-20 06:42:00,
2013-01-19 22:52:00,34.0,31.0,29.81,NNW,338,0.0,0.0,88,0.00,,,0.00,,2013-01-20 06:52:00,
2013-01-19 23:02:00,34.0,31.0,29.81,NNW,338,0.0,0.0,88,0.00,,,0.00,,2013-01-20 07:02:00,
2013-01-19 23:11:00,34.0,31.0,29.81,NNW,338,0.0,0.0,88,0.00,,,0.00,,2013-01-20 07:11:00,
2013-01-19 23:22:00,34.0,31.0,29.81,NNW,338,0.0,1.0,88,0.00,,,0.00,,2013-01-20 07:22:00,
2013-01-19 23:32:00,34.0,31.0,29.81,NNW,338,0.0,2.0,88,0.00,,,0.00,,2013-01-20 07:32:00,
2013-01-19 23:42:00,34.0,31.0,29.81,NNW,338,0.0,2.0,88,0.00,,,0.00,,2013-01-20 07:42:00,
2013-01-19 23:52:00,34.0,31.0,29.80,NNW,338,0.0,0.0,88,0.00,,,0.00,,2013-01-20 07:52:00,